Terminal Aerodrome Forecast
Issued by NWS

Home | Current Version | Previous Version | Text Only | Print | Product List | Glossary On
Versions: 1 2 3 4 5 6 7 8 9 10 11 12 13 14 15 16 17 18 19 20 21 22 23 24 25 26 27 28 29
000
FTUS41 KBUF 050520
TAFJHW
TAF
KJHW 050520Z 0506/0606 00000KT 6SM BR FEW250
     FM050900 00000KT 3SM BR SKC
     FM051300 00000KT P6SM SKC
     FM052000 34004KT P6SM FEW250
     FM060100 VRB03KT P6SM SCT250
      AMD LTD TO CLD VIS AND WIND=

USA.gov is the U.S. government's official web portal to all federal, state and local government web resources and services.